Weather History for Edwards AFB North Base, CA

Change the Weather History Date:

Thursday, November 22, 2012

  Actual Average (KEDW) Record (KEDW)
Temperature  
Mean Temperature 54 °F -  
Max Temperature 71 °F 61 °F 75 °F (1998)
Min Temperature 36 °F 33 °F 24 °F (2007)
Degree Days  
Heating Degree Days 12    
Growing Degree Days 4 (Base 50)    
Moisture  
Dew Point 32 °F    
Average Humidity 52    
Maximum Humidity 86    
Minimum Humidity 23    
Precipitation  
Precipitation 0.00 in - - ()
Sea Level Pressure  
Sea Level Pressure 30.17 in    
Wind  
Wind Speed 2 mph (North)    
Max Wind Speed 9 mph    
Max Gust Speed -    
Visibility 10 miles    
Events      
Averages and records for this station are not official NWS values.
T = Trace of Precipitation, MM = Missing Value Source: NWS Daily Summary

Daily Weather History Graph

Daily Weather History Graph

Search for Another Location

Airport:

Trip Planner

Search our weather history database for the weather conditions in past years. The results will help you decide how hot, cold, wet, or windy it might be!

Date:

Astronomy

Nov. 22, 2012 Rise Set
Actual Time 6:33 AM PST 4:42 PM PST
Civil Twilight 6:05 AM PST 5:09 PM PST
Nautical Twilight 5:34 AM PST 5:40 PM PST
Astronomical Twilight 5:04 AM PST 6:10 PM PST
Moon 1:19 PM PST (11/22) 1:09 AM PST (11/22)
Length of Visible Light 11h 03m
Length of Day
10h 08m
Waxing Gibbous, 72% of the Moon is Illuminated
Nov 22
Waxing Gibbous
Nov 28
Full
Dec 6
Last Quarter
Dec 13
New
Dec 19
First Quarter

Hourly Weather History & Observations

Time (PST) Temp. Windchill Dew Point Humidity Pressure Visibility Wind Dir Wind Speed Gust Speed Precip Events Conditions
12:55 AM 43.0 °F - 34.0 °F 71% 30.06 in 10.0 mi Calm Calm - N/A   Clear
1:55 AM 41.0 °F 39.0 °F 34.0 °F 76% 30.07 in 10.0 mi North 3.5 mph - N/A   Clear
2:55 AM 41.0 °F 35.2 °F 34.0 °F 76% 30.09 in 10.0 mi NE 9.2 mph - N/A   Clear
3:55 AM 37.9 °F - 33.1 °F 83% 30.11 in 10.0 mi Calm Calm - N/A   Clear
4:55 AM 37.0 °F 33.3 °F 32.0 °F 82% 30.13 in 10.0 mi NNW 4.6 mph - N/A   Clear
5:55 AM 36.0 °F 33.3 °F 32.0 °F 86% 30.16 in 10.0 mi WNW 3.5 mph - N/A   Clear
6:55 AM 37.0 °F 33.3 °F 33.1 °F 86% 30.18 in 10.0 mi WNW 4.6 mph - N/A   Clear
7:55 AM 44.1 °F - 36.0 °F 73% 30.19 in 10.0 mi Calm Calm - N/A   Clear
8:55 AM 48.9 °F - 37.9 °F 66% 30.21 in 10.0 mi Calm Calm - N/A   Clear
9:55 AM 52.0 °F - 39.0 °F 61% 30.21 in 10.0 mi Calm Calm - N/A   Clear
10:55 AM 57.9 °F - 39.0 °F 49% 30.19 in 10.0 mi Calm Calm - N/A   Clear
11:55 AM 64.0 °F - 37.0 °F 37% 30.17 in 10.0 mi Calm Calm - N/A   Clear
12:55 PM 68.0 °F - 35.1 °F 30% 30.14 in 10.0 mi Calm Calm - N/A   Clear
1:55 PM 69.1 °F - 34.0 °F 27% 30.13 in 10.0 mi Calm Calm - N/A   Clear
2:55 PM 71.1 °F - 33.1 °F 25% 30.12 in 10.0 mi WSW 4.6 mph - N/A   Clear
3:55 PM 71.1 °F - 30.9 °F 23% 30.13 in 10.0 mi ESE 3.5 mph - N/A   Clear
4:55 PM 64.9 °F - 30.9 °F 28% 30.15 in 10.0 mi Calm Calm - N/A   Clear
5:55 PM 59.0 °F - 26.1 °F 28% 30.18 in 10.0 mi NE 8.1 mph - N/A   Clear
6:55 PM 53.1 °F - 26.1 °F 35% 30.21 in 10.0 mi North 6.9 mph - N/A   Clear
7:55 PM 51.1 °F - 25.0 °F 36% 30.22 in 10.0 mi Calm Calm - N/A   Clear
8:55 PM 48.9 °F - 24.1 °F 38% 30.24 in 10.0 mi North 3.5 mph - N/A   Clear
9:55 PM 48.0 °F - 25.0 °F 41% 30.25 in 10.0 mi North 4.6 mph - N/A   Clear
10:55 PM 45.0 °F - 24.1 °F 44% 30.25 in 10.0 mi Calm Calm - N/A   Clear
11:55 PM 43.0 °F - 21.9 °F 43% 30.24 in 10.0 mi Calm Calm - N/A   Clear